Location: El Carrer d�Abaix
(41.5797°N, 2.1791°E)
Time: 21:32:15
(UTC+00:00)

Cosmos 2082 Rocket - Pass Details

Date: 05 October 2020
Orbit: 834 x 853 km, 71.0° (Epoch: 27 October)

Event Time Altitude Azimuth Distance (km) Brightness Sun altitude
Rises 20:02:16 0° 320° (NW) 3,394 6.2 -29.6°
Reaches altitude 10° 20:05:24 10° 303° (WNW) 2,458 5.5 -30.2°
Maximum altitude 20:09:10 19° 261° (W) 1,921 4.6 -30.8°
Drops below altitude 10° 20:12:55 10° 218° (SW) 2,455 4.7 -31.5°
Enters shadow 20:14:55 - 206° (SSW) 3,021 5.1 -31.8°
